TimeCET,TemperatureF,Dew PointF,Humidity,Sea Level PressureIn,VisibilityMPH,Wind Direction,Wind SpeedMPH,Gust SpeedMPH,PrecipitationIn,Events,Conditions,WindDirDegrees,DateUTC
12:00 AM,42.8,37.4,81,30.15,6.2,South,4.6,-,N/A,,Overcast,170,2012-11-16 23:00:00
1:00 AM,41.0,37.4,87,30.15,6.2,SSE,4.6,-,N/A,,Overcast,150,2012-11-17 00:00:00
2:00 AM,41.0,37.4,87,30.15,6.2,SSE,4.6,-,N/A,,Overcast,150,2012-11-17 01:00:00
3:00 AM,41.0,37.4,87,30.12,6.2,Calm,Calm,-,N/A,,Overcast,0,2012-11-17 02:00:00
4:00 AM,41.0,37.4,87,30.12,5.0,SE,2.3,-,N/A,,Overcast,140,2012-11-17 03:00:00
5:00 AM,42.8,37.4,81,30.09,5.0,SSE,1.2,-,N/A,,Overcast,150,2012-11-17 04:00:00
6:00 AM,42.8,37.4,81,30.09,5.0,Calm,Calm,-,N/A,,Overcast,0,2012-11-17 05:00:00
7:00 AM,42.8,37.4,81,30.09,5.0,Calm,Calm,-,N/A,,Overcast,0,2012-11-17 06:00:00
9:00 AM,44.6,37.4,76,30.09,6.2,South,4.6,-,N/A,,Mostly Cloudy,190,2012-11-17 08:00:00
10:00 AM,44.6,37.4,76,30.09,6.2,SSW,5.8,-,N/A,,Overcast,210,2012-11-17 09:00:00
11:00 AM,44.6,37.4,76,30.06,6.2,SSW,8.1,-,N/A,,Mostly Cloudy,210,2012-11-17 10:00:00
12:00 PM,46.4,37.4,71,30.06,6.2,SSW,9.2,-,N/A,,Overcast,200,2012-11-17 11:00:00
1:00 PM,46.4,37.4,71,30.04,6.2,SSW,9.2,-,N/A,,Overcast,200,2012-11-17 12:00:00
2:00 PM,46.4,39.2,76,30.04,6.2,SSW,8.1,-,N/A,,Overcast,210,2012-11-17 13:00:00
3:00 PM,46.4,39.2,76,30.04,6.2,SSW,8.1,-,N/A,,Overcast,210,2012-11-17 14:00:00
4:00 PM,44.6,41.0,87,30.01,6.2,SW,5.8,-,N/A,,Overcast,230,2012-11-17 15:00:00
5:00 PM,44.6,39.2,81,30.01,6.2,SW,4.6,-,N/A,,Overcast,230,2012-11-17 16:00:00
6:00 PM,46.4,39.2,76,30.01,6.2,SW,6.9,-,N/A,,Overcast,220,2012-11-17 17:00:00
7:00 PM,46.4,39.2,76,30.01,6.2,SSW,8.1,-,N/A,,Overcast,210,2012-11-17 18:00:00
8:00 PM,46.4,39.2,76,30.01,6.2,SSW,10.4,-,N/A,,Overcast,210,2012-11-17 19:00:00
9:00 PM,44.6,39.2,81,30.01,5.6,SSW,10.4,-,N/A,,Overcast,200,2012-11-17 20:00:00
10:00 PM,44.6,41.0,87,30.01,5.0,SSW,10.4,-,N/A,,Overcast,200,2012-11-17 21:00:00
11:00 PM,44.6,41.0,87,30.01,4.3,SSW,8.1,-,N/A,,Overcast,200,2012-11-17 22:00:00